THORAD DELTA 1 DEB

基本信息
目录编号:
8144
目录名称:
THORAD DELTA 1 DEB
国际标识:
1974-089N
轨道中心:
EARTH
物体状态:
在轨
发射日期:
1974-11-15 UTC
轨道信息
数据来源: 国际轨道数据
星历时间: 2026-09-09T23:18:44+0800
半长轴: 7826.191km
偏心率: 0.0151867
轨道倾角: 101.771°
近地点辐角: 44.186°
升交点赤经: 204.001°
平近点角: 127.489°
近地点: 1329.199km
远地点: 1566.909km
周期: 114.838分钟
每日圈数: 12.539412
详细信息
发射场:
AFWTR
轨道高度:
LEO
数据来源:
AOE Integration Group
参考系:
TEME
时间系统:
UTC
历元类型:
SGP4
2D轨道图
3D轨道图
轨道高度分析图
轨道倾角分析图
轨道综合分析图
查看轨道综合分析图